Temp
10 10 10 10 10 10 10 10 10 11 11 12 13 16 18 19 19 18 18 26 26 26 26 26 25 26 25 23 26 25 23 24 25 26 26 28 30 30 30 29 30 29 26 25 23
11 10 10 10 10 10 10 10 10 11 11 12 13 15 18 18 17 16 26 26 26 26 26 26 24 27 22 23 25 23 22 23 23 23 26 29 29 30 29 29 28 27 26 26 24
15 12 10 10 10 10 10 11 11 11 12 13 14 16 17 17 16 22 27 26 26 27 27 27 27 28 25 24 23 22 22 23 23 23 24 25 28 29 27 25 26 25 26 26 25
14 14 13 10 11 12 12 12 11 12 13 13 14 16 17 16 25 27 28 27 25 26 26 27 26 26 27 24 21 23 22 24 25 23 24 24 29 28 28 28 27 27 27 26 25
15 15 15 14 14 14 15 14 14 13 14 14 15 16 16 17 20 28 28 27 25 26 25 26 26 26 27 28 23 24 24 25 25 25 24 27 27 29 29 30 28 28 27 26 26
14 15 16 16 16 16 17 17 16 16 15 13 13 15 15 20 27 27 27 25 26 26 26 26 26 27 28 29 26 26 26 25 25 26 25 28 27 28 29 30 29 28 27 27 26
15 15 16 17 17 17 18 18 18 17 17 15 13 13 15 20 26 27 27 26 26 27 25 27 27 27 28 29 28 26 24 24 24 24 25 28 27 26 27 30 29 29 27 27 27
15 16 17 17 18 18 18 18 18 18 18 17 15 13 16 27 27 25 26 26 26 26 28 29 28 27 28 30 29 27 25 23 24 26 25 27 25 26 26 29 28 28 28 28 27
15 16 17 18 18 18 19 19 19 19 18 16 14 15 18 26 27 29 28 27 28 27 27 28 29 26 29 27 26 25 23 23 25 27 26 26 25 26 26 29 29 28 28 28 26
15 16 17 18 18 19 19 20 17 17 16 14 15 17 21 26 28 29 29 28 27 27 27 27 26 25 24 24 23 24 23 23 24 25 25 24 25 26 25 26 26 26 27 28 27
16 17 18 18 19 19 20 19 17 17 16 20 21 23 25 28 28 29 30 29 28 27 25 27 25 24 26 25 26 26 26 27 22 23 24 25 24 26 25 26 26 25 27 27 27
17 18 18 19 19 20 18 15 20 24 21 20 22 23 26 27 28 29 30 28 26 25 26 25 24 26 27 26 27 29 27 24 22 22 23 23 24 25 26 26 25 24 26 26 24
17 18 19 20 20 20 18 21 26 23 20 24 25 25 27 28 27 27 27 27 28 27 26 24 26 29 28 26 29 28 26 25 25 23 23 24 23 24 26 26 24 23 23 23 24
17 18 19 20 19 18 19 26 24 22 19 24 26 27 29 29 28 30 29 28 27 26 25 25 28 29 29 29 30 26 28 27 24 23 23 22 23 23 25 24 25 24 22 22 22
17 18 19 19 18 17 26 24 24 23 20 28 28 30 29 27 28 28 30 28 27 27 26 26 29 28 29 31 31 27 28 26 25 21 22 22 22 21 23 24 25 25 24 22 22
18 18 20 18 17 25 23 25 25 20 22 27 29 28 28 28 28 30 29 29 29 28 27 26 29 29 30 32 31 29 26 25 23 21 22 23 23 22 22 24 26 26 24 24 22
19 19 19 18 20 24 24 21 20 21 25 28 27 28 27 25 26 28 28 27 25 26 26 27 28 30 32 28 28 27 25 24 23 22 24 23 23 25 25 27 26 26 25 25 24
20 21 22 23 24 23 22 20 22 26 25 27 27 25 24 26 26 25 27 26 27 26 25 25 26 30 32 29 26 27 26 24 23 23 25 23 25 27 25 28 26 26 26 24 24
21 21 21 26 25 23 18 19 22 23 28 27 26 23 23 25 25 24 26 25 27 26 26 26 27 30 31 32 30 29 26 28 25 25 26 24 24 25 26 24 24 24 25 24 25
20 19 22 26 26 23 18 20 24 27 28 25 24 25 24 24 24 21 24 27 29 29 27 27 26 29 29 32 30 30 29 27 22 26 26 27 25 24 24 24 24 24 23 24 24
19 18 27 27 24 18 19 19 25 27 30 27 25 24 24 23 22 22 24 26 28 28 27 27 25 27 28 28 28 28 27 26 23 23 25 26 26 27 26 25 24 23 23 23 25
15 20 26 26 20 17 20 24 26 27 27 28 27 28 26 24 22 24 25 25 28 27 26 26 22 25 27 28 28 27 28 24 23 26 23 24 25 23 22 22 23 23 24 23 23
13 16 27 27 21 20 21 25 28 28 27 28 28 28 27 26 25 25 26 28 27 28 27 27 23 23 24 24 24 25 27 25 22 21 24 24 24 23 23 22 22 21 21 22 24
13 18 19 20 19 24 23 25 28 29 29 29 28 26 25 24 23 26 26 29 29 29 25 25 23 22 21 23 24 26 26 26 24 23 23 23 22 23 22 22 22 21 21 22 22
13 18 21 20 22 22 24 25 27 28 27 26 27 25 26 24 24 24 25 26 27 25 26 23 25 25 24 26 25 28 27 26 24 23 26 23 22 22 21 21 20 21 21 22 21
16 19 18 19 20 24 24 26 26 27 26 26 24 24 22 23 24 25 25 25 25 25 25 21 23 24 24 26 26 25 26 26 26 25 23 22 21 21 19 19 20 19 20 20 21
17 19 17 19 22 22 24 27 26 26 25 25 24 23 24 25 25 25 25 25 24 26 24 23 21 21 23 23 25 22 22 24 24 24 25 22 21 21 20 20 19 20 19 19 19
Height
807 805 803 801 799 797 795 794 794 793 792 790 789 787 786 784 783 782 781 776 776 776 778 780 783 786 789 789 785 787 812 814 811 803 800 784 786 784 784 790 793 793 805 814 822
806 804 802 800 798 796 794 793 792 791 790 789 788 786 785 783 780 777 769 771 773 775 777 779 783 786 796 793 791 802 820 815 812 804 798 786 784 783 792 796 803 805 811 815 820
805 803 801 799 797 794 793 792 791 790 789 789 787 786 785 783 783 767 763 767 771 773 776 777 781 785 795 795 804 806 818 811 809 800 798 800 792 786 796 810 802 808 811 817 823
805 802 800 798 796 793 792 791 790 789 788 788 787 786 784 784 785 763 762 763 770 774 776 777 780 789 793 800 803 812 805 806 806 799 800 802 785 791 789 794 793 798 804 814 820
805 803 800 797 795 793 791 790 789 788 787 787 787 786 786 786 774 762 763 765 770 773 774 777 780 784 792 785 801 802 795 799 801 804 802 789 791 786 792 790 795 799 805 812 817
806 803 800 798 795 793 791 790 788 787 786 786 786 786 788 789 762 762 763 765 768 771 771 773 772 774 782 776 785 782 789 795 795 793 797 793 790 785 792 789 795 799 805 811 817
805 803 800 798 796 793 791 790 788 786 786 785 786 787 788 773 762 764 763 764 766 767 768 768 771 778 775 779 774 785 804 805 801 803 803 789 805 805 795 792 796 799 805 809 813
805 802 800 798 795 793 791 789 787 786 785 785 786 787 782 760 763 764 765 765 765 767 766 766 772 776 777 769 777 794 803 824 803 797 798 798 822 803 797 794 799 800 803 806 811
804 802 799 797 794 792 789 787 786 786 785 785 787 787 778 758 757 756 760 762 763 765 766 767 772 776 772 789 801 804 822 821 812 792 795 800 813 800 796 794 798 802 803 807 812
804 801 798 796 793 790 788 784 783 784 785 787 787 790 766 759 753 754 758 760 762 764 769 772 776 786 792 802 827 817 825 819 812 803 800 809 811 800 799 799 801 804 803 806 811
803 800 797 794 791 788 785 784 786 787 784 776 770 768 759 753 753 753 754 759 761 768 784 773 792 802 790 789 792 797 799 800 817 808 808 808 813 804 803 801 803 804 805 805 808
802 799 796 792 789 786 784 784 777 780 782 762 761 761 754 753 756 752 753 764 770 784 776 789 801 779 776 785 791 787 798 817 822 814 812 815 816 807 802 803 803 804 803 807 811
801 797 794 790 786 784 782 777 774 778 787 762 754 755 751 750 756 757 753 760 768 779 782 798 780 767 778 788 789 792 802 807 809 809 815 815 824 817 803 799 801 805 805 806 807
799 795 791 788 787 783 779 774 776 775 802 778 760 752 747 747 758 746 749 758 768 782 783 786 765 771 776 782 777 801 783 788 804 817 834 821 845 823 812 810 807 808 809 809 808
798 794 790 787 786 783 775 772 770 773 825 763 757 742 743 757 755 752 747 757 774 774 780 783 768 772 775 768 762 790 775 795 802 827 829 831 839 830 820 814 804 803 805 808 809
795 791 787 786 782 775 774 770 767 806 818 771 753 757 759 758 757 750 754 751 754 768 769 771 752 757 758 749 755 770 788 804 814 826 841 828 828 827 818 793 800 797 801 803 807
789 785 783 783 777 775 774 772 805 819 774 772 768 760 766 776 767 761 764 770 784 790 789 770 761 747 742 769 765 776 802 837 845 848 836 820 828 806 792 783 792 793 798 800 802
782 778 777 775 775 776 776 789 810 781 781 762 764 770 783 769 771 772 770 779 766 777 792 797 795 752 736 755 782 784 800 829 848 847 831 826 823 798 783 759 773 779 787 797 803
778 776 775 771 773 776 785 812 802 787 762 768 770 791 791 776 778 780 777 778 766 766 789 788 782 746 739 736 750 772 800 772 811 809 820 816 811 790 781 778 777 780 783 792 795
777 776 772 771 772 775 795 803 783 762 756 767 789 780 790 790 791 798 787 763 761 752 753 768 788 755 748 737 743 756 760 799 814 826 831 807 811 817 794 783 772 775 777 781 785
777 780 767 769 773 785 806 801 774 753 746 764 777 785 783 791 794 796 788 771 757 752 750 756 779 776 756 762 771 772 783 786 799 810 819 823 808 775 778 773 776 778 781 775 772
781 790 766 768 790 794 798 779 762 758 752 755 759 765 773 781 791 785 783 775 755 756 768 761 786 791 779 756 747 760 775 788 814 807 811 809 810 779 777 777 782 783 776 780 779
793 786 768 769 797 796 781 771 760 759 761 761 765 761 764 778 786 780 773 755 756 760 767 760 789 807 794 780 766 780 774 780 791 802 804 816 812 782 777 778 776 779 780 779 778
795 797 780 773 777 777 781 776 767 751 756 755 761 763 771 781 780 783 780 762 758 757 755 757 787 804 820 804 792 789 780 776 788 809 806 803 804 792 788 784 779 778 778 774 774
795 794 782 794 780 778 774 771 768 770 761 761 767 770 773 786 786 786 778 772 762 760 762 772 790 786 786 780 785 778 782 779 789 785 790 797 803 800 794 790 788 783 774 770 772
795 792 785 787 780 770 767 770 771 767 769 779 780 778 782 790 787 787 781 780 779 769 773 780 797 788 794 783 782 791 781 779 782 784 792 797 806 793 797 794 791 785 784 785 784
791 788 789 783 776 777 772 762 766 762 770 768 775 782 785 779 773 769 768 769 772 773 780 786 799 807 810 795 786 812 811 796 795 790 793 811 806 800 803 803 797 792 794 793 791
Wind_Speed
10 11 11 11 10 10 10 10 10 10 10 11 12 11 11 13 14 6 6 7 9 9 9 3 7 7 1 4 2 2 4 4 5 3 2 5 11 9 13 22 15 6 17 19 27
12 12 12 11 11 10 10 10 10 10 10 11 11 11 10 12 12 11 15 10 11 13 8 8 5 9 2 5 3 4 2 4 3 5 7 4 15 19 15 13 15 19 21 31 31
14 14 13 12 12 11 9 9 10 10 10 10 10 9 8 8 4 7 2 19 15 10 16 10 6 5 6 3 4 2 2 2 0 3 4 4 2 8 17 7 21 26 23 24 25
16 16 16 13 11 11 10 9 9 10 10 10 9 7 5 2 2 2 6 21 19 11 12 4 1 3 3 8 8 7 11 8 5 8 4 8 4 10 17 15 25 26 27 26 18
15 16 17 15 13 12 10 9 9 9 8 8 8 6 2 1 8 6 1 20 17 12 13 5 6 4 4 9 10 5 11 12 12 17 10 8 2 12 14 18 25 24 25 20 18
16 17 17 16 14 12 11 11 10 9 8 6 5 4 2 3 4 7 8 18 18 17 12 9 6 5 5 2 10 16 11 13 11 5 6 4 4 10 11 19 22 23 20 18 19
16 16 16 16 15 14 13 11 10 9 7 6 2 2 1 12 2 7 10 16 21 21 5 22 10 1 5 5 6 15 10 5 11 8 5 2 6 4 12 11 15 14 18 20 23
15 15 15 17 16 15 13 12 10 9 5 3 3 2 7 8 8 14 14 6 14 16 22 19 13 5 5 2 5 8 8 8 10 11 6 2 5 3 3 14 11 11 16 16 20
16 16 16 17 16 16 15 12 9 6 3 2 1 1 9 12 7 17 18 9 15 18 20 15 6 7 2 3 3 4 3 4 6 3 4 1 7 5 2 12 11 10 16 15 12
17 17 17 18 17 17 15 14 8 2 2 2 5 3 7 4 6 15 13 19 6 3 3 5 2 2 3 3 5 8 7 6 8 4 3 3 2 2 3 7 3 5 18 16 17
18 18 18 18 19 20 19 5 2 1 4 8 6 5 6 5 4 5 14 8 2 3 4 3 3 5 10 7 3 5 2 8 4 6 6 5 7 6 5 4 3 4 13 18 17
20 19 19 19 20 21 12 1 6 3 8 13 15 9 17 13 3 2 12 4 6 6 2 4 5 11 7 3 8 10 2 5 4 5 1 4 4 4 4 3 3 4 17 14 7
21 21 21 18 20 8 8 13 15 20 3 8 5 5 5 7 6 6 7 4 3 2 2 6 11 11 6 8 12 4 7 9 6 8 3 4 3 6 0 2 8 2 0 7 15
22 24 21 19 7 8 10 15 22 8 4 6 2 6 4 3 3 8 15 6 1 9 6 7 13 12 8 10 6 5 3 11 12 9 3 5 3 2 4 5 6 8 5 6 10
24 26 19 15 13 4 10 25 30 7 4 1 2 4 3 6 2 3 16 3 4 4 5 9 5 6 8 11 4 6 16 9 10 5 4 3 4 5 8 13 17 14 12 8 7
27 26 18 7 10 14 18 29 6 5 3 3 4 3 3 4 5 2 4 3 2 4 6 10 6 6 8 9 11 15 17 7 5 3 3 9 3 4 10 28 17 12 14 12 7
28 21 14 9 5 5 22 6 5 4 5 3 3 1 4 3 7 5 5 4 4 1 3 6 6 4 9 11 14 16 10 1 3 3 2 10 3 6 5 16 17 16 11 15 14
21 11 9 16 12 11 11 5 5 4 5 4 5 10 5 5 3 4 2 3 5 4 2 2 7 4 2 10 13 12 8 4 5 4 4 4 5 3 7 10 14 14 14 8 11
10 3 5 8 7 5 5 4 5 5 1 4 6 7 4 4 4 10 4 7 5 8 5 0 5 5 4 4 9 6 6 10 5 2 3 5 1 4 4 8 12 11 15 15 13
8 4 5 4 8 6 4 4 4 4 3 5 4 3 3 1 6 6 4 6 5 5 7 6 3 2 7 3 3 7 5 3 3 3 4 3 4 5 9 11 14 14 16 13 15
4 3 3 14 10 5 2 6 6 8 3 3 5 4 3 4 3 2 4 6 7 10 2 5 4 8 2 3 7 3 2 4 4 4 5 3 4 4 13 6 9 2 3 11 19
6 3 4 23 3 1 2 5 7 7 7 3 3 2 4 8 8 5 2 4 6 6 4 4 5 2 6 8 3 5 3 3 5 6 3 4 4 5 6 7 9 4 4 4 5
2 3 7 10 1 2 6 7 4 5 5 4 4 3 6 1 3 4 4 5 9 4 2 4 4 3 8 7 9 7 3 1 2 2 3 5 4 5 8 8 7 8 5 4 1
2 3 4 3 1 3 5 6 1 4 3 3 3 7 4 5 6 1 2 1 1 4 4 2 5 5 5 5 2 4 6 5 3 2 2 2 4 4 5 3 4 5 2 4 8
2 4 3 3 6 6 3 7 3 3 6 9 7 6 4 4 4 5 5 6 6 8 7 5 4 2 2 2 3 3 7 10 7 5 4 3 5 2 1 2 5 5 6 4 11
0 2 4 3 5 5 1 4 8 3 6 4 11 11 10 6 2 2 3 3 4 5 4 5 1 2 6 6 6 7 16 19 12 12 11 9 6 2 4 2 2 6 5 8 10
5 6 3 5 6 5 3 5 1 6 10 7 12 7 8 5 3 5 3 2 6 0 2 3 3 3 3 6 3 8 7 17 13 12 3 4 2 3 4 3 5 6 10 11 11
Wind_Direction
349 344 339 336 330 322 317 309 309 314 317 322 324 324 324 320 315 290 241 215 191 159 195 208 199 191 49 335 117 98 39 333 37 1 78 303 148 136 130 131 145 110 136 137 146
354 347 343 337 332 323 318 312 311 311 313 317 321 324 331 329 320 257 245 209 200 218 207 190 197 178 121 194 27 73 41 327 31 290 161 264 136 134 135 134 113 113 128 142 142
356 353 344 340 333 329 316 313 311 310 310 314 318 326 338 340 322 252 305 206 191 199 206 220 254 235 183 83 43 64 190 96 327 282 245 274 218 123 136 171 142 143 148 146 150
359 357 353 343 338 331 329 321 314 310 311 316 322 332 344 3 224 297 334 181 177 195 217 202 237 197 203 150 163 128 249 238 210 242 296 265 174 147 161 163 148 151 152 150 162
354 356 359 356 350 347 347 338 322 314 313 320 330 351 55 313 250 282 32 174 179 203 216 196 184 182 208 159 145 174 224 220 217 191 242 236 133 161 154 149 153 149 150 153 154
353 355 358 358 355 352 352 349 342 325 313 317 337 39 25 282 262 209 171 171 182 197 220 208 214 180 294 197 174 179 165 190 206 222 280 110 3 115 148 141 158 150 156 153 155
354 353 354 354 354 350 349 347 344 333 321 308 355 71 269 237 133 183 182 194 193 203 209 225 248 239 331 305 102 129 120 147 226 233 220 19 72 61 132 175 154 142 147 151 163
351 348 351 351 350 349 344 340 334 344 337 356 90 104 246 264 271 259 226 200 199 210 219 233 232 273 232 161 117 134 114 188 196 202 196 161 169 170 243 170 172 142 157 149 150
347 346 347 345 346 342 339 329 326 338 12 89 70 110 270 305 231 223 199 206 195 216 234 258 263 206 322 79 68 109 156 262 260 236 146 133 165 181 17 181 184 145 155 154 140
348 346 342 340 339 335 333 316 299 256 24 289 268 315 277 257 225 226 215 218 187 202 327 222 198 142 62 98 215 173 177 218 203 12 252 105 162 185 147 114 124 84 159 158 154
347 344 338 336 332 331 334 320 23 29 201 208 204 231 271 286 288 213 208 186 155 109 192 263 95 210 217 212 64 289 12 155 126 359 223 202 186 214 162 129 98 95 173 166 169
344 342 338 333 327 326 322 210 224 42 310 224 246 250 267 266 140 231 198 152 143 197 198 17 214 233 223 242 245 272 173 69 92 235 209 9 292 289 172 182 107 127 156 170 124
343 341 335 331 324 327 307 263 310 321 311 297 193 202 233 148 176 221 136 176 155 172 209 180 235 236 219 246 256 158 150 178 179 117 50 183 132 295 47 116 74 27 15 137 148
341 339 334 330 322 316 277 331 338 320 39 279 239 265 252 130 275 187 186 147 253 197 222 229 257 236 231 231 224 98 287 154 132 140 161 349 144 315 295 257 171 190 223 168 139
338 336 330 321 300 278 287 325 334 155 14 315 216 183 189 150 145 264 180 95 239 236 100 244 247 203 234 226 141 148 147 143 141 77 102 330 89 238 288 252 221 186 199 199 173
334 329 320 299 281 275 324 330 356 48 308 304 153 178 76 343 317 242 157 179 208 260 265 249 268 174 218 209 123 130 95 91 77 107 107 219 226 218 217 227 221 220 182 191 179
329 318 294 238 238 306 327 357 50 96 310 303 184 92 87 349 351 25 199 175 182 38 310 320 279 265 218 87 105 109 96 6 5 5 229 192 259 249 262 227 217 218 211 188 183
332 301 269 257 268 300 347 47 66 253 235 300 74 66 52 349 342 327 282 259 248 132 348 272 329 163 218 146 154 143 156 174 175 178 162 189 242 242 290 208 171 192 184 187 181
343 318 262 274 257 235 67 40 209 224 202 111 42 66 347 337 41 19 289 225 239 171 192 308 274 325 314 164 133 124 177 184 120 337 80 175 55 320 282 114 137 162 163 177 189
339 306 264 148 171 111 68 238 249 220 206 81 117 162 5 342 35 8 320 307 276 242 177 247 349 303 294 105 77 139 177 70 3 154 218 183 157 187 230 190 165 165 174 183 183
352 30 233 183 157 54 156 237 283 278 150 124 186 152 186 127 161 239 279 292 332 336 339 122 96 298 19 151 182 43 35 71 128 145 172 171 235 52 227 190 160 207 279 186 180
344 24 170 173 60 207 211 220 280 16 10 67 100 126 145 167 192 188 281 229 349 339 5 322 129 268 246 314 238 112 28 101 125 268 184 144 254 2 62 63 79 61 100 314 314
359 268 196 189 206 260 294 291 236 47 20 28 58 298 115 255 31 2 291 352 328 360 20 305 49 15 347 355 6 40 8 78 211 80 219 126 249 34 53 46 12 48 11 151 112
13 7 320 24 146 238 295 299 246 35 50 88 52 60 74 80 34 72 326 243 120 318 54 86 72 140 169 202 180 333 339 41 105 76 200 191 135 42 34 53 8 7 313 230 160
166 252 212 279 293 244 197 244 130 49 359 19 4 37 126 75 50 8 357 359 357 3 12 81 81 330 274 255 206 242 28 23 21 283 147 109 105 143 297 208 328 335 357 152 160
40 37 341 273 272 302 192 347 119 156 98 23 85 58 59 86 131 355 357 38 254 360 30 4 358 87 2 359 322 70 48 49 49 59 72 80 63 212 64 7 344 2 12 29 51
328 336 105 278 325 27 269 147 131 118 23 111 116 81 30 326 255 254 217 264 250 175 73 72 96 52 305 319 345 42 0 58 53 31 68 43 59 49 61 28 349 31 46 53 55